| time (UTC) | temp F | wind direction | speed MPH | gust MPH | rain 1hr in | rain 24hr in | rain mn in | humidity % | barometer mb |
| 20260905081558 | 73 | 126 | 2.0 | 7.0 | 0.00 | 0.00 | 0.00 | 33 | 1019.5 |
| 20260905081040 | 73 | 104 | 2.0 | 7.0 | 0.00 | 0.00 | 0.00 | 33 | 1019.4 |
| 20260905080540 | 73 | 0 | 0.0 | 6.0 | 0.00 | 0.00 | 0.00 | 33 | 1019.3 |
| 20260905080120 | 73 | 88 | 2.0 | 6.0 | 0.00 | 0.00 | 0.00 | 33 | 1019.3 |
| 20260905075543 | 74 | 43 | 2.0 | 8.0 | 0.00 | 0.00 | 0.00 | 32 | 1019.4 |
| 20260905075039 | 74 | 30 | 1.0 | 8.0 | 0.00 | 0.00 | 0.00 | 32 | 1019.4 |
| 20260905074603 | 74 | 9 | 3.0 | 8.0 | 0.00 | 0.00 | 0.00 | 33 | 1019.3 |
| 20260905074042 | 74 | 324 | 1.0 | 7.0 | 0.00 | 0.00 | 0.00 | 33 | 1019.4 |
| 20260905073541 | 74 | 9 | 3.0 | 7.0 | 0.00 | 0.00 | 0.00 | 33 | 1019.3 |
| 20260905073103 | 74 | 0 | 1.0 | 5.0 | 0.00 | 0.00 | 0.00 | 33 | 1019.4 |
| 20260905072543 | 74 | 14 | 1.0 | 5.0 | 0.00 | 0.00 | 0.00 | 33 | 1019.3 |
| 20260905072042 | 74 | 360 | 2.0 | 6.0 | 0.00 | 0.00 | 0.00 | 32 | 1019.5 |
| 20260905071604 | 74 | 115 | 3.0 | 6.0 | 0.00 | 0.00 | 0.00 | 32 | 1019.5 |
| 20260905071039 | 76 | 107 | 1.0 | 5.0 | 0.00 | 0.00 | 0.00 | 31 | 1019.3 |
| 20260905070540 | 76 | 0 | 1.0 | 4.0 | 0.00 | 0.00 | 0.00 | 31 | 1019.3 |
| 20260905070101 | 76 | 297 | 1.0 | 3.0 | 0.00 | 0.00 | 0.00 | 31 | 1019.4 |
| 20260905065541 | 76 | 128 | 0.0 | 4.0 | 0.00 | 0.00 | 0.00 | 32 | 1019.4 |
| 20260905065039 | 75 | 0 | 0.0 | 4.0 | 0.00 | 0.00 | 0.00 | 32 | 1019.5 |
| 20260905064558 | 76 | 235 | 1.0 | 4.0 | 0.00 | 0.00 | 0.00 | 31 | 1019.5 |
| 20260905064043 | 75 | 0 | 0.0 | 5.0 | 0.00 | 0.00 | 0.00 | 32 | 1019.5 |
| 20260905063541 | 76 | 257 | 2.0 | 6.0 | 0.00 | 0.00 | 0.00 | 32 | 1019.6 |
| 20260905063102 | 75 | 254 | 1.0 | 6.0 | 0.00 | 0.00 | 0.00 | 32 | 1019.7 |
| 20260905062542 | 75 | 260 | 1.0 | 4.0 | 0.00 | 0.00 | 0.00 | 31 | 1019.8 |
| 20260905062046 | 75 | 341 | 1.0 | 6.0 | 0.00 | 0.00 | 0.00 | 31 | 1019.9 |
| 20260905061601 | 75 | 327 | 1.0 | 6.0 | 0.00 | 0.00 | 0.00 | 32 | 1019.9 |
| 20260905061040 | 75 | 290 | 2.0 | 6.0 | 0.00 | 0.00 | 0.00 | 32 | 1020.0 |
| 20260905060540 | 75 | 254 | 2.0 | 6.0 | 0.00 | 0.00 | 0.00 | 32 | 1020.0 |
| 20260905060100 | 75 | 207 | 1.0 | 4.0 | 0.00 | 0.00 | 0.00 | 32 | 1020.1 |
| 20260905055545 | 74 | 169 | 0.0 | 4.0 | 0.00 | 0.00 | 0.00 | 34 | 1020.1 |
| 20260905055041 | 74 | 169 | 1.0 | 7.0 | 0.00 | 0.00 | 0.00 | 34 | 1020.1 |
| 20260905054604 | 74 | 198 | 3.0 | 7.0 | 0.00 | 0.00 | 0.00 | 33 | 1020.1 |
| 20260905054041 | 74 | 315 | 1.0 | 7.0 | 0.00 | 0.00 | 0.00 | 34 | 1020.1 |
| 20260905053543 | 73 | 0 | 1.0 | 7.0 | 0.00 | 0.00 | 0.00 | 35 | 1020.1 |
| 20260905053108 | 73 | 236 | 2.0 | 4.0 | 0.00 | 0.00 | 0.00 | 35 | 1020.1 |
| 20260905052542 | 73 | 0 | 1.0 | 4.0 | 0.00 | 0.00 | 0.00 | 35 | 1020.2 |
| 20260905052040 | 73 | 279 | 0.0 | 5.0 | 0.00 | 0.00 | 0.00 | 36 | 1020.3 |
| 20260905051601 | 73 | 0 | 0.0 | 5.0 | 0.00 | 0.00 | 0.00 | 35 | 1020.4 |
| 20260905051040 | 72 | 210 | 2.0 | 6.0 | 0.00 | 0.00 | 0.00 | 36 | 1020.4 |
| 20260905050540 | 72 | 0 | 2.0 | 6.0 | 0.00 | 0.00 | 0.00 | 36 | 1020.5 |
| 20260905050106 | 72 | 144 | 1.0 | 7.0 | 0.00 | 0.00 | 0.00 | 36 | 1020.7 |
| 20260905045540 | 72 | 171 | 3.0 | 7.0 | 0.00 | 0.00 | 0.00 | 36 | 1020.7 |
| 20260905045040 | 73 | 98 | 2.0 | 6.0 | 0.00 | 0.00 | 0.00 | 35 | 1020.8 |
| 20260905044559 | 73 | 360 | 1.0 | 5.0 | 0.00 | 0.00 | 0.00 | 36 | 1020.8 |
| 20260905044041 | 72 | 0 | 2.0 | 5.0 | 0.00 | 0.00 | 0.00 | 36 | 1020.9 |
| 20260905043543 | 72 | 360 | 1.0 | 6.0 | 0.00 | 0.00 | 0.00 | 37 | 1021.1 |
| 20260905043101 | 72 | 360 | 2.0 | 6.0 | 0.00 | 0.00 | 0.00 | 36 | 1021.1 |
| 20260905042543 | 73 | 241 | 1.0 | 7.0 | 0.00 | 0.00 | 0.00 | 36 | 1021.3 |
| 20260905042041 | 72 | 180 | 2.0 | 7.0 | 0.00 | 0.00 | 0.00 | 37 | 1021.4 |
| 20260905041605 | 71 | 179 | 3.0 | 7.0 | 0.00 | 0.00 | 0.00 | 38 | 1021.3 |
| 20260905041040 | 72 | 360 | 2.0 | 7.0 | 0.00 | 0.00 | 0.00 | 37 | 1021.5 |
| 20260905040540 | 71 | 0 | 1.0 | 6.0 | 0.00 | 0.00 | 0.00 | 39 | 1021.5 |
| 20260905040105 | 70 | 360 | 1.0 | 7.0 | 0.00 | 0.00 | 0.00 | 39 | 1021.6 |
| 20260905035545 | 71 | 360 | 3.0 | 7.0 | 0.00 | 0.00 | 0.00 | 39 | 1021.7 |
| 20260905035043 | 71 | 245 | 3.0 | 5.0 | 0.00 | 0.00 | 0.00 | 38 | 1021.8 |
| 20260905034618 | 70 | 0 | 2.0 | 8.0 | 0.00 | 0.00 | 0.00 | 40 | 1021.9 |
| 20260905034040 | 69 | 360 | 2.0 | 8.0 | 0.00 | 0.00 | 0.00 | 41 | 1022.0 |
| 20260905033542 | 70 | 83 | 3.0 | 8.0 | 0.00 | 0.00 | 0.00 | 40 | 1022.1 |
| 20260905033117 | 69 | 134 | 2.0 | 7.0 | 0.00 | 0.00 | 0.00 | 41 | 1022.1 |
| 20260905032542 | 69 | 57 | 2.0 | 8.0 | 0.00 | 0.00 | 0.00 | 40 | 1022.2 |
| 20260905032044 | 71 | 62 | 3.0 | 8.0 | 0.00 | 0.00 | 0.00 | 39 | 1022.4 |
| 20260905031612 | 71 | 22 | 1.0 | 5.0 | 0.00 | 0.00 | 0.00 | 40 | 1022.3 |
| 20260905031040 | 70 | 33 | 2.0 | 6.0 | 0.00 | 0.00 | 0.00 | 41 | 1022.5 |
| 20260905030542 | 69 | 43 | 1.0 | 6.0 | 0.00 | 0.00 | 0.00 | 43 | 1022.5 |
| 20260905030101 | 68 | 67 | 2.0 | 8.0 | 0.00 | 0.00 | 0.00 | 42 | 1022.6 |
| 20260905025542 | 68 | 81 | 2.0 | 8.0 | 0.00 | 0.00 | 0.00 | 43 | 1022.6 |
| 20260905025041 | 69 | 107 | 3.0 | 8.0 | 0.00 | 0.00 | 0.00 | 41 | 1022.7 |
| 20260905024556 | 69 | 36 | 0.0 | 6.0 | 0.00 | 0.00 | 0.00 | 42 | 1022.9 |
| 20260905024043 | 68 | 360 | 2.0 | 6.0 | 0.00 | 0.00 | 0.00 | 43 | 1022.9 |
| 20260905023542 | 67 | 325 | 1.0 | 9.0 | 0.00 | 0.00 | 0.00 | 45 | 1023.0 |
| 20260905023127 | 67 | 120 | 3.0 | 9.0 | 0.00 | 0.00 | 0.00 | 44 | 1023.0 |
| 20260905022542 | 67 | 119 | 2.0 | 8.0 | 0.00 | 0.00 | 0.00 | 44 | 1023.0 |
| 20260905022041 | 67 | 0 | 2.0 | 8.0 | 0.00 | 0.00 | 0.00 | 45 | 1023.1 |
| 20260905021600 | 67 | 124 | 1.0 | 6.0 | 0.00 | 0.00 | 0.00 | 44 | 1023.1 |
| 20260905021040 | 67 | 290 | 1.0 | 5.0 | 0.00 | 0.00 | 0.00 | 45 | 1023.2 |
| 20260905020540 | 66 | 0 | 2.0 | 8.0 | 0.00 | 0.00 | 0.00 | 45 | 1023.3 |
| 20260905020058 | 66 | 138 | 3.0 | 8.0 | 0.00 | 0.00 | 0.00 | 45 | 1023.4 |
| 20260905015542 | 67 | 360 | 1.0 | 5.0 | 0.00 | 0.00 | 0.00 | 45 | 1023.5 |
| 20260905015041 | 66 | 22 | 2.0 | 5.0 | 0.00 | 0.00 | 0.00 | 47 | 1023.5 |
| 20260905014557 | 65 | 229 | 1.0 | 10.0 | 0.00 | 0.00 | 0.00 | 48 | 1023.6 |
| 20260905014041 | 64 | 111 | 4.0 | 10.0 | 0.00 | 0.00 | 0.00 | 49 | 1023.7 |
| 20260905013540 | 64 | 121 | 1.0 | 9.0 | 0.00 | 0.00 | 0.00 | 49 | 1023.7 |
| 20260905013101 | 64 | 106 | 4.0 | 9.0 | 0.00 | 0.00 | 0.00 | 49 | 1023.8 |
| 20260905012541 | 64 | 145 | 1.0 | 7.0 | 0.00 | 0.00 | 0.00 | 50 | 1023.8 |
| 20260905012041 | 63 | 82 | 3.0 | 9.0 | 0.00 | 0.00 | 0.00 | 51 | 1023.9 |
| 20260905011601 | 63 | 88 | 2.0 | 9.0 | 0.00 | 0.00 | 0.00 | 51 | 1023.9 |
| 20260905011042 | 63 | 78 | 2.0 | 8.0 | 0.00 | 0.00 | 0.00 | 52 | 1024.0 |
| 20260905010545 | 62 | 121 | 3.0 | 10.0 | 0.00 | 0.00 | 0.00 | 52 | 1024.1 |
| 20260905010109 | 62 | 86 | 2.0 | 10.0 | 0.00 | 0.00 | 0.00 | 53 | 1024.1 |
| 20260905005540 | 61 | 360 | 5.0 | 10.0 | 0.00 | 0.00 | 0.00 | 53 | 1024.1 |
| 20260905005040 | 61 | 360 | 3.0 | 9.0 | 0.00 | 0.00 | 0.00 | 54 | 1024.1 |
| 20260905004620 | 61 | 360 | 3.0 | 9.0 | 0.00 | 0.00 | 0.00 | 54 | 1024.1 |
| 20260905004040 | 61 | 360 | 4.0 | 9.0 | 0.00 | 0.00 | 0.00 | 55 | 1024.1 |
| 20260905003541 | 60 | 360 | 4.0 | 9.0 | 0.00 | 0.00 | 0.00 | 55 | 1024.1 |
| 20260905003056 | 60 | 360 | 4.0 | 9.0 | 0.00 | 0.00 | 0.00 | 55 | 1024.1 |
| 20260905002540 | 60 | 360 | 4.0 | 6.0 | 0.00 | 0.00 | 0.00 | 57 | 1024.1 |
| 20260905002040 | 60 | 360 | 3.0 | 9.0 | 0.00 | 0.00 | 0.00 | 57 | 1024.0 |
| 20260905001604 | 60 | 360 | 3.0 | 10.0 | 0.00 | 0.00 | 0.00 | 58 | 1023.9 |
| 20260905001042 | 59 | 360 | 2.0 | 10.0 | 0.00 | 0.00 | 0.00 | 59 | 1023.9 |
| 20260905000542 | 59 | 360 | 4.0 | 10.0 | 0.00 | 0.00 | 0.00 | 59 | 1023.9 |
| 20260905000132 | 59 | 360 | 2.0 | 6.0 | 0.00 | 0.00 | 0.00 | 61 | 1023.9 |
| 20260904235540 | 58 | 360 | 3.0 | 6.0 | 0.00 | 0.00 | 0.00 | 62 | 1023.9 |
| 20260904235040 | 58 | 360 | 2.0 | 5.0 | 0.00 | 0.00 | 0.00 | 63 | 1023.9 |
| 20260904234600 | 58 | 360 | 2.0 | 5.0 | 0.00 | 0.00 | 0.00 | 63 | 1023.9 |
| 20260904234044 | 58 | 360 | 3.0 | 5.0 | 0.00 | 0.00 | 0.00 | 62 | 1023.9 |
| 20260904233543 | 58 | 360 | 2.0 | 5.0 | 0.00 | 0.00 | 0.00 | 64 | 1023.9 |
| 20260904233053 | 57 | 360 | 3.0 | 5.0 | 0.00 | 0.00 | 0.00 | 64 | 1023.8 |
| 20260904232543 | 57 | 360 | 2.0 | 5.0 | 0.00 | 0.00 | 0.00 | 64 | 1023.7 |
| 20260904232044 | 57 | 360 | 2.0 | 5.0 | 0.00 | 0.00 | 0.00 | 65 | 1023.8 |
| 20260904231600 | 57 | 360 | 2.0 | 5.0 | 0.00 | 0.00 | 0.00 | 65 | 1023.6 |
| 20260904231041 | 57 | 360 | 1.0 | 4.0 | 0.00 | 0.00 | 0.00 | 65 | 1023.5 |
| 20260904230543 | 57 | 0 | 1.0 | 4.0 | 0.00 | 0.00 | 0.00 | 66 | 1023.5 |
| 20260904230114 | 57 | 360 | 0.0 | 2.0 | 0.00 | 0.00 | 0.00 | 68 | 1023.6 |
| 20260904225539 | 56 | 0 | 0.0 | 2.0 | 0.00 | 0.00 | 0.00 | 70 | 1023.7 |
| 20260904225040 | 56 | 0 | 0.0 | 2.0 | 0.00 | 0.00 | 0.00 | 71 | 1023.5 |
| 20260904224600 | 55 | 0 | 0.0 | 2.0 | 0.00 | 0.00 | 0.00 | 73 | 1023.5 |
| 20260904224042 | 54 | 0 | 0.0 | 0.0 | 0.00 | 0.00 | 0.00 | 74 | 1023.4 |
| 20260904223541 | 53 | 0 | 0.0 | 0.0 | 0.00 | 0.00 | 0.00 | 76 | 1023.4 |
| 20260904223056 | 52 | 0 | 0.0 | 0.0 | 0.00 | 0.00 | 0.00 | 77 | 1023.2 |
| 20260904222546 | 52 | 0 | 0.0 | 0.0 | 0.00 | 0.00 | 0.00 | 79 | 1023.2 |
| 20260904222042 | 51 | 0 | 0.0 | 0.0 | 0.00 | 0.00 | 0.00 | 79 | 1023.0 |
| 20260904221602 | 50 | 0 | 0.0 | 0.0 | 0.00 | 0.00 | 0.00 | 80 | 1023.0 |
| 20260904221042 | 49 | 0 | 0.0 | 0.0 | 0.00 | 0.00 | 0.00 | 80 | 1022.9 |
| 20260904220546 | 49 | 0 | 0.0 | 0.0 | 0.00 | 0.00 | 0.00 | 80 | 1022.9 |
| 20260904215540 | 48 | 0 | 0.0 | 0.0 | 0.00 | 0.00 | 0.00 | 78 | 1022.8 |
| 20260904215039 | 48 | 0 | 0.0 | 0.0 | 0.00 | 0.00 | 0.00 | 78 | 1022.7 |
| 20260904214557 | 49 | 0 | 0.0 | 0.0 | 0.00 | 0.00 | 0.00 | 78 | 1022.5 |
| 20260904214039 | 49 | 0 | 0.0 | 0.0 | 0.00 | 0.00 | 0.00 | 78 | 1022.6 |
| 20260904213542 | 49 | 0 | 0.0 | 0.0 | 0.00 | 0.00 | 0.00 | 78 | 1022.5 |
| 20260904213102 | 49 | 0 | 0.0 | 0.0 | 0.00 | 0.00 | 0.00 | 78 | 1022.4 |
| 20260904212543 | 50 | 0 | 0.0 | 0.0 | 0.00 | 0.00 | 0.00 | 77 | 1022.3 |
| 20260904212039 | 50 | 0 | 0.0 | 0.0 | 0.00 | 0.00 | 0.00 | 77 | 1022.3 |
| 20260904211601 | 50 | 0 | 0.0 | 0.0 | 0.00 | 0.00 | 0.00 | 77 | 1022.2 |
| 20260904211142 | 50 | 0 | 0.0 | 0.0 | 0.00 | 0.00 | 0.00 | 77 | 1022.2 |
| 20260904210540 | 50 | 0 | 0.0 | 0.0 | 0.00 | 0.00 | 0.00 | 76 | 1022.2 |
| 20260904210058 | 50 | 0 | 0.0 | 0.0 | 0.00 | 0.00 | 0.00 | 76 | 1022.1 |
| 20260904205543 | 50 | 0 | 0.0 | 0.0 | 0.00 | 0.00 | 0.00 | 76 | 1022.1 |
| 20260904205042 | 50 | 0 | 0.0 | 0.0 | 0.00 | 0.00 | 0.00 | 76 | 1022.0 |
| 20260904204602 | 51 | 0 | 0.0 | 0.0 | 0.00 | 0.00 | 0.00 | 76 | 1022.0 |
| 20260904204042 | 51 | 0 | 0.0 | 0.0 | 0.00 | 0.00 | 0.00 | 75 | 1021.9 |
| 20260904203542 | 51 | 0 | 0.0 | 0.0 | 0.00 | 0.00 | 0.00 | 75 | 1021.9 |
| 20260904203053 | 51 | 0 | 0.0 | 1.0 | 0.00 | 0.00 | 0.00 | 75 | 1021.9 |
| 20260904202542 | 51 | 0 | 0.0 | 1.0 | 0.00 | 0.00 | 0.00 | 75 | 1021.6 |
| 20260904202042 | 51 | 0 | 0.0 | 0.0 | 0.00 | 0.00 | 0.00 | 75 | 1021.5 |
| 20260904201628 | 51 | 0 | 0.0 | 0.0 | 0.00 | 0.00 | 0.00 | 74 | 1021.6 |
| 20260904201040 | 51 | 0 | 0.0 | 2.0 | 0.00 | 0.00 | 0.00 | 74 | 1021.5 |
| 20260904200542 | 51 | 0 | 0.0 | 2.0 | 0.00 | 0.00 | 0.00 | 74 | 1021.3 |
| 20260904195543 | 51 | 0 | 0.0 | 3.0 | 0.00 | 0.00 | 0.00 | 73 | 1021.3 |
| 20260904195043 | 52 | 360 | 0.0 | 3.0 | 0.00 | 0.00 | 0.00 | 73 | 1021.1 |
| 20260904194557 | 52 | 0 | 0.0 | 1.0 | 0.00 | 0.00 | 0.00 | 72 | 1021.1 |
| 20260904194039 | 52 | 360 | 0.0 | 2.0 | 0.00 | 0.00 | 0.00 | 72 | 1021.1 |
| 20260904193542 | 52 | 0 | 0.0 | 2.0 | 0.00 | 0.00 | 0.00 | 71 | 1021.1 |
| 20260904193105 | 53 | 360 | 0.0 | 2.0 | 0.00 | 0.00 | 0.00 | 71 | 1021.0 |
| 20260904192541 | 53 | 360 | 0.0 | 2.0 | 0.00 | 0.00 | 0.00 | 70 | 1020.9 |
| 20260904192043 | 53 | 360 | 1.0 | 3.0 | 0.00 | 0.00 | 0.00 | 70 | 1020.8 |
| 20260904191602 | 54 | 360 | 1.0 | 4.0 | 0.00 | 0.00 | 0.00 | 70 | 1020.9 |
| 20260904191047 | 54 | 360 | 1.0 | 4.0 | 0.00 | 0.00 | 0.00 | 70 | 1020.9 |
| 20260904190546 | 54 | 360 | 2.0 | 5.0 | 0.00 | 0.00 | 0.00 | 69 | 1020.8 |
| 20260904185543 | 54 | 360 | 2.0 | 6.0 | 0.00 | 0.00 | 0.00 | 69 | 1020.6 |
| 20260904185039 | 55 | 360 | 3.0 | 6.0 | 0.00 | 0.00 | 0.00 | 69 | 1020.6 |
| 20260904184557 | 55 | 360 | 2.0 | 5.0 | 0.00 | 0.00 | 0.00 | 69 | 1020.5 |
| 20260904184039 | 55 | 360 | 2.0 | 5.0 | 0.00 | 0.00 | 0.00 | 69 | 1020.6 |
| 20260904183542 | 55 | 360 | 3.0 | 6.0 | 0.00 | 0.00 | 0.00 | 69 | 1020.6 |
| 20260904183117 | 55 | 360 | 3.0 | 6.0 | 0.00 | 0.00 | 0.00 | 68 | 1020.6 |
| 20260904182544 | 55 | 360 | 3.0 | 6.0 | 0.00 | 0.00 | 0.00 | 68 | 1020.4 |
| 20260904182042 | 55 | 360 | 3.0 | 9.0 | 0.00 | 0.00 | 0.00 | 68 | 1020.4 |
| 20260904181600 | 56 | 360 | 4.0 | 11.0 | 0.00 | 0.00 | 0.00 | 67 | 1020.4 |
| 20260904181040 | 56 | 360 | 5.0 | 11.0 | 0.00 | 0.00 | 0.00 | 67 | 1020.4 |
| 20260904180543 | 56 | 360 | 4.0 | 11.0 | 0.00 | 0.00 | 0.00 | 67 | 1020.5 |
| 20260904175543 | 56 | 360 | 4.0 | 10.0 | 0.00 | 0.00 | 0.00 | 66 | 1020.4 |
| 20260904175039 | 56 | 360 | 4.0 | 10.0 | 0.00 | 0.00 | 0.00 | 66 | 1020.4 |
| 20260904174559 | 56 | 360 | 5.0 | 10.0 | 0.00 | 0.00 | 0.00 | 66 | 1020.3 |
| 20260904174040 | 57 | 360 | 5.0 | 10.0 | 0.00 | 0.00 | 0.00 | 66 | 1020.2 |
| 20260904173540 | 57 | 360 | 5.0 | 11.0 | 0.00 | 0.00 | 0.00 | 66 | 1020.4 |
| 20260904173058 | 57 | 360 | 5.0 | 11.0 | 0.00 | 0.00 | 0.00 | 65 | 1020.2 |
| 20260904172541 | 57 | 360 | 6.0 | 13.0 | 0.00 | 0.00 | 0.00 | 65 | 1020.1 |
| 20260904172041 | 57 | 360 | 6.0 | 13.0 | 0.00 | 0.00 | 0.00 | 65 | 1020.1 |
| 20260904171616 | 57 | 360 | 4.0 | 11.0 | 0.00 | 0.00 | 0.00 | 64 | 1020.0 |
| 20260904171040 | 57 | 360 | 6.0 | 11.0 | 0.00 | 0.00 | 0.00 | 64 | 1020.1 |
| 20260904170542 | 57 | 360 | 6.0 | 11.0 | 0.00 | 0.00 | 0.00 | 63 | 1020.2 |
| 20260904165543 | 58 | 360 | 7.0 | 12.0 | 0.00 | 0.00 | 0.00 | 62 | 1020.0 |
| 20260904165040 | 58 | 360 | 6.0 | 13.0 | 0.00 | 0.00 | 0.00 | 62 | 1019.9 |
| 20260904164616 | 58 | 360 | 6.0 | 13.0 | 0.00 | 0.00 | 0.00 | 61 | 1020.0 |
| 20260904164041 | 58 | 360 | 6.0 | 11.0 | 0.00 | 0.00 | 0.00 | 60 | 1019.9 |
| 20260904163541 | 59 | 360 | 5.0 | 10.0 | 0.00 | 0.00 | 0.00 | 58 | 1019.9 |
| 20260904163053 | 59 | 360 | 4.0 | 11.0 | 0.00 | 0.00 | 0.00 | 57 | 1019.9 |
| 20260904162541 | 59 | 360 | 5.0 | 12.0 | 0.00 | 0.00 | 0.00 | 56 | 1020.0 |
| 20260904162042 | 60 | 360 | 6.0 | 12.0 | 0.00 | 0.00 | 0.00 | 55 | 1020.0 |
| 20260904161608 | 60 | 360 | 4.0 | 9.0 | 0.00 | 0.00 | 0.00 | 53 | 1019.9 |
| 20260904161039 | 61 | 360 | 3.0 | 13.0 | 0.00 | 0.00 | 0.00 | 51 | 1019.7 |
| 20260904160543 | 61 | 360 | 3.0 | 13.0 | 0.00 | 0.00 | 0.00 | 50 | 1019.6 |
| 20260904160058 | 61 | 360 | 5.0 | 13.0 | 0.00 | 0.00 | 0.00 | 50 | 1019.6 |
| 20260904155543 | 61 | 360 | 1.0 | 4.0 | 0.00 | 0.00 | 0.00 | 50 | 1019.4 |
| 20260904155040 | 61 | 360 | 1.0 | 4.0 | 0.00 | 0.00 | 0.00 | 50 | 1019.3 |
| 20260904154559 | 61 | 360 | 1.0 | 4.0 | 0.00 | 0.00 | 0.00 | 50 | 1019.2 |
| 20260904154040 | 61 | 360 | 1.0 | 3.0 | 0.00 | 0.00 | 0.00 | 50 | 1019.3 |
| 20260904153540 | 61 | 360 | 2.0 | 3.0 | 0.00 | 0.00 | 0.00 | 50 | 1019.2 |
| 20260904153112 | 61 | 360 | 1.0 | 3.0 | 0.00 | 0.00 | 0.00 | 50 | 1019.3 |
| 20260904152539 | 61 | 360 | 1.0 | 4.0 | 0.00 | 0.00 | 0.00 | 50 | 1019.4 |
| 20260904152042 | 61 | 360 | 1.0 | 4.0 | 0.00 | 0.00 | 0.00 | 50 | 1019.3 |
| 20260904151600 | 62 | 360 | 1.0 | 4.0 | 0.00 | 0.00 | 0.00 | 50 | 1019.3 |
| 20260904151043 | 62 | 360 | 1.0 | 3.0 | 0.00 | 0.00 | 0.00 | 49 | 1019.3 |
| 20260904150540 | 62 | 360 | 2.0 | 3.0 | 0.00 | 0.00 | 0.00 | 49 | 1019.3 |
| 20260904150056 | 62 | 360 | 1.0 | 3.0 | 0.00 | 0.00 | 0.00 | 49 | 1019.4 |
| 20260904145540 | 62 | 360 | 1.0 | 3.0 | 0.00 | 0.00 | 0.00 | 48 | 1019.4 |
| 20260904145046 | 63 | 360 | 1.0 | 3.0 | 0.00 | 0.00 | 0.00 | 48 | 1019.4 |
| 20260904144605 | 63 | 360 | 1.0 | 3.0 | 0.00 | 0.00 | 0.00 | 48 | 1019.3 |
| 20260904144041 | 63 | 360 | 1.0 | 3.0 | 0.00 | 0.00 | 0.00 | 48 | 1019.4 |
| 20260904143542 | 62 | 360 | 1.0 | 3.0 | 0.00 | 0.00 | 0.00 | 48 | 1019.4 |
| 20260904143102 | 62 | 360 | 1.0 | 3.0 | 0.00 | 0.00 | 0.00 | 48 | 1019.4 |
| 20260904142548 | 62 | 360 | 0.0 | 3.0 | 0.00 | 0.00 | 0.00 | 49 | 1019.3 |
| 20260904142041 | 63 | 360 | 0.0 | 3.0 | 0.00 | 0.00 | 0.00 | 48 | 1019.3 |
| 20260904141600 | 63 | 360 | 1.0 | 3.0 | 0.00 | 0.00 | 0.00 | 48 | 1019.2 |
| 20260904141040 | 63 | 360 | 1.0 | 2.0 | 0.00 | 0.00 | 0.00 | 48 | 1019.3 |
| 20260904140540 | 63 | 360 | 1.0 | 2.0 | 0.00 | 0.00 | 0.00 | 47 | 1019.3 |
| 20260904140100 | 64 | 360 | 1.0 | 2.0 | 0.00 | 0.00 | 0.00 | 47 | 1019.3 |
| 20260904135540 | 64 | 360 | 1.0 | 2.0 | 0.00 | 0.00 | 0.00 | 46 | 1019.4 |
| 20260904135043 | 64 | 360 | 1.0 | 3.0 | 0.00 | 0.00 | 0.00 | 45 | 1019.4 |
| 20260904134559 | 65 | 360 | 1.0 | 3.0 | 0.00 | 0.00 | 0.00 | 44 | 1019.4 |
| 20260904134043 | 65 | 360 | 1.0 | 3.0 | 0.00 | 0.00 | 0.00 | 44 | 1019.4 |
| 20260904133544 | 66 | 360 | 1.0 | 4.0 | 0.00 | 0.00 | 0.00 | 43 | 1019.4 |
| 20260904133103 | 66 | 360 | 2.0 | 4.0 | 0.00 | 0.00 | 0.00 | 43 | 1019.4 |
| 20260904132543 | 66 | 360 | 1.0 | 4.0 | 0.00 | 0.00 | 0.00 | 43 | 1019.3 |
| 20260904132043 | 66 | 360 | 2.0 | 5.0 | 0.00 | 0.00 | 0.00 | 43 | 1019.2 |
| 20260904131607 | 66 | 360 | 2.0 | 5.0 | 0.00 | 0.00 | 0.00 | 43 | 1019.2 |
| 20260904131042 | 66 | 360 | 2.0 | 4.0 | 0.00 | 0.00 | 0.00 | 43 | 1019.2 |
| 20260904130540 | 66 | 360 | 1.0 | 3.0 | 0.00 | 0.00 | 0.00 | 43 | 1019.2 |
| 20260904130058 | 67 | 360 | 1.0 | 3.0 | 0.00 | 0.00 | 0.00 | 43 | 1019.1 |
| 20260904125543 | 67 | 360 | 1.0 | 4.0 | 0.00 | 0.00 | 0.00 | 43 | 1019.1 |
| 20260904125043 | 67 | 360 | 1.0 | 4.0 | 0.00 | 0.00 | 0.00 | 42 | 1019.0 |
| 20260904124557 | 67 | 360 | 2.0 | 4.0 | 0.00 | 0.00 | 0.00 | 42 | 1019.0 |
| 20260904124043 | 67 | 360 | 1.0 | 3.0 | 0.00 | 0.00 | 0.00 | 42 | 1019.0 |
| 20260904123542 | 67 | 360 | 1.0 | 3.0 | 0.00 | 0.00 | 0.00 | 41 | 1018.9 |
| 20260904123058 | 68 | 360 | 1.0 | 3.0 | 0.00 | 0.00 | 0.00 | 41 | 1018.9 |
| 20260904122542 | 68 | 360 | 1.0 | 4.0 | 0.00 | 0.00 | 0.00 | 40 | 1018.8 |
| 20260904122044 | 68 | 360 | 1.0 | 4.0 | 0.00 | 0.00 | 0.00 | 40 | 1018.8 |
| 20260904121605 | 69 | 360 | 1.0 | 4.0 | 0.00 | 0.00 | 0.00 | 39 | 1018.8 |
| 20260904121043 | 69 | 360 | 2.0 | 5.0 | 0.00 | 0.00 | 0.00 | 39 | 1018.6 |
| 20260904120539 | 69 | 360 | 2.0 | 5.0 | 0.00 | 0.00 | 0.00 | 38 | 1018.4 |
| 20260904120104 | 69 | 360 | 1.0 | 4.0 | 0.00 | 0.00 | 0.00 | 38 | 1018.4 |
| 20260904115539 | 70 | 360 | 2.0 | 6.0 | 0.00 | 0.00 | 0.00 | 37 | 1018.3 |
| 20260904115043 | 70 | 360 | 2.0 | 6.0 | 0.00 | 0.00 | 0.00 | 37 | 1018.3 |
| 20260904114606 | 70 | 360 | 3.0 | 6.0 | 0.00 | 0.00 | 0.00 | 36 | 1018.1 |
| 20260904114043 | 71 | 360 | 3.0 | 9.0 | 0.00 | 0.00 | 0.00 | 36 | 1018.1 |
| 20260904113540 | 71 | 360 | 3.0 | 9.0 | 0.00 | 0.00 | 0.00 | 36 | 1018.1 |
| 20260904113100 | 71 | 360 | 4.0 | 9.0 | 0.00 | 0.00 | 0.00 | 35 | 1018.0 |
| 20260904112544 | 71 | 360 | 3.0 | 8.0 | 0.00 | 0.00 | 0.00 | 35 | 1017.9 |
| 20260904112039 | 71 | 360 | 3.0 | 6.0 | 0.00 | 0.00 | 0.00 | 35 | 1017.9 |
| 20260904111602 | 71 | 360 | 3.0 | 6.0 | 0.00 | 0.00 | 0.00 | 35 | 1017.8 |
| 20260904111043 | 71 | 360 | 2.0 | 5.0 | 0.00 | 0.00 | 0.00 | 34 | 1017.7 |
| 20260904110544 | 71 | 360 | 3.0 | 5.0 | 0.00 | 0.00 | 0.00 | 34 | 1017.6 |
| 20260904110111 | 71 | 360 | 2.0 | 5.0 | 0.00 | 0.00 | 0.00 | 34 | 1017.6 |
| 20260904105543 | 72 | 360 | 3.0 | 8.0 | 0.00 | 0.00 | 0.00 | 33 | 1017.4 |
| 20260904105051 | 72 | 360 | 3.0 | 8.0 | 0.00 | 0.00 | 0.00 | 33 | 1017.3 |
| 20260904104600 | 72 | 360 | 3.0 | 6.0 | 0.00 | 0.00 | 0.00 | 33 | 1017.3 |
| 20260904104042 | 72 | 360 | 3.0 | 6.0 | 0.00 | 0.00 | 0.00 | 33 | 1017.3 |
| 20260904103540 | 73 | 360 | 3.0 | 8.0 | 0.00 | 0.00 | 0.00 | 32 | 1017.1 |
| 20260904103104 | 73 | 360 | 3.0 | 9.0 | 0.00 | 0.00 | 0.00 | 32 | 1017.0 |
| 20260904102540 | 73 | 360 | 4.0 | 10.0 | 0.00 | 0.00 | 0.00 | 32 | 1016.9 |
| 20260904102040 | 73 | 360 | 3.0 | 10.0 | 0.00 | 0.00 | 0.00 | 32 | 1016.7 |
| 20260904101612 | 73 | 360 | 3.0 | 10.0 | 0.00 | 0.00 | 0.00 | 32 | 1016.5 |
| 20260904101039 | 74 | 360 | 3.0 | 10.0 | 0.00 | 0.00 | 0.00 | 32 | 1016.3 |
| 20260904100539 | 74 | 360 | 4.0 | 10.0 | 0.00 | 0.00 | 0.00 | 32 | 1016.2 |
| 20260904100109 | 74 | 360 | 3.0 | 8.0 | 0.00 | 0.00 | 0.00 | 32 | 1016.1 |
| 20260904095543 | 74 | 360 | 4.0 | 8.0 | 0.00 | 0.00 | 0.00 | 32 | 1015.9 |
| 20260904095046 | 75 | 360 | 3.0 | 9.0 | 0.00 | 0.00 | 0.00 | 32 | 1015.9 |
| 20260904094609 | 75 | 360 | 3.0 | 9.0 | 0.00 | 0.00 | 0.00 | 32 | 1015.7 |
| 20260904094040 | 75 | 360 | 4.0 | 12.0 | 0.00 | 0.00 | 0.00 | 33 | 1015.7 |
| 20260904093540 | 76 | 360 | 4.0 | 12.0 | 0.00 | 0.00 | 0.00 | 33 | 1015.4 |
| 20260904093059 | 76 | 360 | 5.0 | 12.0 | 0.00 | 0.00 | 0.00 | 33 | 1015.5 |
| 20260904092541 | 76 | 360 | 6.0 | 13.0 | 0.00 | 0.00 | 0.00 | 32 | 1015.4 |
| 20260904092044 | 77 | 360 | 6.0 | 13.0 | 0.00 | 0.00 | 0.00 | 30 | 1015.2 |
| 20260904091615 | 77 | 265 | 9.0 | 17.0 | 0.00 | 0.00 | 0.00 | 29 | 1015.1 |
| 20260904091042 | 77 | 247 | 8.0 | 17.0 | 0.00 | 0.00 | 0.00 | 29 | 1014.9 |
| 20260904090541 | 78 | 257 | 10.0 | 17.0 | 0.00 | 0.00 | 0.00 | 28 | 1014.8 |
| 20260904090101 | 78 | 269 | 9.0 | 15.0 | 0.00 | 0.00 | 0.00 | 29 | 1014.6 |
| 20260904085539 | 78 | 262 | 8.0 | 14.0 | 0.00 | 0.00 | 0.00 | 31 | 1014.4 |
| 20260904085041 | 78 | 250 | 7.0 | 14.0 | 0.00 | 0.00 | 0.00 | 31 | 1014.4 |
| 20260904084558 | 78 | 261 | 8.0 | 16.0 | 0.00 | 0.00 | 0.00 | 31 | 1014.3 |
| 20260904084042 | 78 | 244 | 10.0 | 16.0 | 0.00 | 0.00 | 0.00 | 30 | 1014.1 |
| 20260904083540 | 78 | 246 | 7.0 | 16.0 | 0.00 | 0.00 | 0.00 | 29 | 1014.0 |
| 20260904083106 | 78 | 254 | 8.0 | 16.0 | 0.00 | 0.00 | 0.00 | 29 | 1013.9 |
| 20260904082543 | 78 | 282 | 9.0 | 17.0 | 0.00 | 0.00 | 0.00 | 29 | 1013.8 |
| 20260904082043 | 78 | 250 | 8.0 | 17.0 | 0.00 | 0.00 | 0.00 | 30 | 1013.8 |